[[{"header":{"parameterUnit":"m.s-1","parameterCategory":1,"la1":30.2991,"la2":30.254,"lo1":-89.0895,"lo2":-89.0444,"dy":0.0017,"dx":0.0017,"nx":28,"ny":28,"refTime":"2025-12-18T03:00:00:Z","depth":0,"parameterNumber":2,"parameterNumberName":"U-component_of_WINDS"},"data":[0,0,0,0,0,0,0,0,0,0,0,0,0,0,0,0,0,0,0,0,0,0,0,0,0,0,0,0,0,0,0,0,0,0,0,0,0,0,0,0,0,0,0,0,0,0,0,0,0,0,0,0,0,0,0,0,0,0,1.6838,1.6838,0,1.6878,1.6878,1.6879,1.6847,1.6846,1.6844,1.6843,1.6886,1.6888,1.6891,0,0,0,0,0,0,0,0,0,0,0,0,0,1.6737,1.6739,1.6838,1.6838,1.6839,1.6878,1.6878,1.6879,1.6847,1.6846,1.6844,1.6842,1.6885,1.6888,1.6891,0,0,0,0,0,0,0,0,0,0,0,0,0,1.678,1.674,1.6838,1.6828,1.6827,1.6878,1.6878,1.6879,1.6848,1.6846,1.6844,1.6842,1.6884,1.6888,1.6891,1.6954,0,0,1.6902,1.6904,0,0,0,0,0,0,0,0,1.6777,1.6783,1.6829,1.6829,1.6828,1.6855,1.6858,1.6904,1.6848,1.684,1.6843,1.6841,1.6877,1.6881,1.6893,1.6956,1.6958,1.6902,1.6905,1.6906,1.6907,0,0,0,0,0,0,0,1.6774,1.6781,1.6854,1.683,1.6829,1.6822,1.6826,1.6867,1.687,1.6841,1.6838,1.6843,1.6877,1.689,1.6894,1.6958,1.6902,1.6906,1.6908,1.6909,1.7077,1.7079,0,0,0,0,0,0,1.6772,1.6779,1.6852,1.6855,1.6797,1.6826,1.683,1.6849,1.6869,1.687,1.6845,1.6842,1.6885,1.689,1.6896,1.6972,1.6906,1.691,1.6912,1.7074,1.7077,1.708,0,0,0,0,0,0,1.677,1.6779,1.6851,1.6816,1.6825,1.683,1.6851,1.6851,1.6864,1.6872,1.6873,1.6858,1.6883,1.6891,1.694,1.6973,1.6911,1.6914,1.7072,1.7075,1.7078,1.7124,0,0,0,0,0,0,1.6767,1.6778,1.6802,1.6817,1.6827,1.6894,1.6853,1.6853,1.687,1.6866,1.6885,1.6886,1.6882,1.6935,1.6944,1.6977,1.6917,1.7069,1.7073,1.7077,1.712,1.7129,1.7137,0,0,0,0,0,1.6764,1.6813,1.6803,1.6812,1.6856,1.6896,1.6902,1.6896,1.6872,1.6897,1.6902,1.6885,1.6968,1.694,1.695,1.6985,1.7067,1.7072,1.7077,1.7116,1.7127,1.7137,0,0,0,0,0,0,1.6801,1.6815,1.6804,1.6859,1.6877,1.689,1.692,1.6908,1.6932,1.6928,1.692,1.6925,1.6977,1.6986,1.6955,1.7047,1.7014,1.7021,1.704,1.7051,1.7059,1.7056,1.692,0,0,0,0,0,1.6816,1.6847,1.6857,1.6905,1.6914,1.6916,1.6933,1.6927,1.6945,1.6953,1.6962,1.6981,1.7011,1.7031,1.7059,1.7121,1.7125,1.715,1.7158,1.7165,1.7172,1.7207,1.7218,1.7096,1.7096,1.7096,0,0,1.6847,1.6858,1.6878,1.6913,1.6926,1.6959,1.6922,1.6958,1.6983,1.6958,1.7006,1.7013,1.7034,1.709,1.7115,1.7099,1.7206,1.7171,1.7177,1.718,1.7213,1.7225,1.7235,1.71,1.7099,1.7099,0,0,1.692,1.6931,1.6973,1.6987,1.7007,1.7007,1.7018,1.7034,1.7038,1.7085,1.7068,1.7097,1.7149,1.7165,1.718,1.726,1.7246,1.727,1.7314,1.7348,1.7358,1.7366,1.7397,1.7408,1.7276,1.7276,1.7276,0,1.6957,1.7004,1.6997,1.7034,1.7051,1.703,1.7073,1.7087,1.7115,1.7128,1.7108,1.7174,1.7186,1.7246,1.7266,1.7278,1.7291,1.7268,1.7357,1.7365,1.7373,1.7402,1.7414,1.7279,1.7279,1.7279,1.7278,0,1.7049,1.7083,1.7114,1.7142,1.7162,1.7202,1.7202,1.7223,1.7216,1.7219,1.7269,1.7283,1.7314,1.7328,1.7321,1.7388,1.7377,1.7358,1.7324,1.7388,1.7415,1.7426,1.7283,1.7282,1.7281,1.7281,0,0,1.7147,1.7171,1.7183,1.7196,1.7216,1.7243,1.7282,1.7313,1.7332,1.7352,1.7387,1.7432,1.7414,1.7431,1.7426,1.7455,1.7521,1.7432,1.7433,1.745,1.7598,1.7614,1.7627,1.7511,1.7513,1.7515,1.7597,0,1.7223,1.7292,1.7286,1.7352,1.7384,1.7365,1.74,1.7417,1.7421,1.745,1.7455,1.7488,1.7461,1.7471,1.75,1.7507,1.7551,1.75,1.7545,1.7546,1.7542,1.764,1.7657,1.7734,1.7607,1.7609,1.761,0,1.732,1.7344,1.7413,1.743,1.7443,1.7475,1.7503,1.753,1.755,1.7551,1.757,1.756,1.7602,1.7566,1.7625,1.7591,1.7609,1.7615,1.7618,1.7623,1.7583,1.765,1.7758,1.777,1.7626,1.7625,1.7624,0,1.7387,1.7436,1.7484,1.7496,1.7517,1.754,1.7549,1.7567,1.7586,1.7611,1.7623,1.7653,1.767,1.7693,1.7692,1.7666,1.7752,1.7716,1.7756,1.7756,1.7776,1.7775,1.789,1.7785,1.7785,1.7784,1.7784,0,1.7473,1.7516,1.7515,1.7545,1.7593,1.7587,1.7635,1.7643,1.7659,1.7691,1.7675,1.7706,1.7702,1.7733,1.7732,1.7782,1.7789,1.7792,1.7792,1.7795,1.7795,1.7807,1.7803,1.7787,1.7787,1.7786,1.7786,0,1.7556,1.7557,1.7608,1.7624,1.7629,1.7664,1.7678,1.7707,1.771,1.7751,1.776,1.7766,1.7801,1.7802,1.7843,1.7843,1.7904,1.7897,1.7898,1.7897,1.7937,1.7934,1.8066,1.8084,1.7965,1.7966,1.7967,0,1.7611,1.7644,1.7664,1.7684,1.7695,1.7727,1.7747,1.7742,1.7764,1.7789,1.7816,1.785,1.7877,1.7935,1.7944,1.7975,1.797,1.8014,1.7975,1.7977,1.7973,1.7972,1.7976,1.8022,1.8023,1.8024,1.8025,0,1.771,1.7709,1.7737,1.7767,1.7791,1.7813,1.7834,1.7852,1.785,1.7875,1.7911,1.7932,1.7974,1.8009,1.804,1.8051,1.8039,1.8037,1.8049,1.8053,1.8052,1.8055,1.792,1.8035,1.8034,1.8033,1.8033,1.8032,1.7782,1.7811,1.783,1.7863,1.7878,1.7899,1.7927,1.7934,1.7964,1.7998,1.7993,1.8034,1.8055,1.8095,1.8109,1.8142,1.8127,1.8142,1.8147,1.8151,1.8157,1.8046,1.8147,1.8147,1.8146,1.8146,1.8146,0,1.7882,1.7893,1.7923,1.7953,1.798,1.7964,1.7987,1.8011,1.8047,1.8066,1.8094,1.8136,1.817,1.8182,1.8215,1.8239,1.8235,1.8248,1.8247,1.8251,1.8167,1.8155,1.8252,1.8252,1.8252,1.8252,1.8252,1.8252,1.7937,1.7986,1.7987,1.8044,1.8055,1.8095,1.811,1.8129,1.8145,1.8193,1.8221,1.8228,1.8245,1.828,1.8311,1.8314,1.8328,1.8344,1.8345,1.8267,1.8256,1.8246,1.8235,1.8347,1.8347,1.8426,1.8427,1.8427]},{"header":{"parameterUnit":"m.s-1","parameterCategory":1,"la1":30.2991,"la2":30.254,"lo1":-89.0895,"lo2":-89.0444,"dy":0.0017,"dx":0.0017,"nx":28,"ny":28,"refTime":"2025-12-18T03:00:00:Z","depth":0,"parameterNumber":3,"parameterNumberName":"V-component_of_WINDS"},"data":[0,0,0,0,0,0,0,0,0,0,0,0,0,0,0,0,0,0,0,0,0,0,0,0,0,0,0,0,0,0,0,0,0,0,0,0,0,0,0,0,0,0,0,0,0,0,0,0,0,0,0,0,0,0,0,0,0,0,2.6916,2.6915,0,2.6887,2.6887,2.6886,2.683,2.6828,2.6827,2.6826,2.6797,2.6798,2.6798,0,0,0,0,0,0,0,0,0,0,0,0,0,2.6922,2.6923,2.6916,2.6915,2.6915,2.6887,2.6887,2.6886,2.683,2.6828,2.6827,2.6826,2.6797,2.6798,2.6798,0,0,0,0,0,0,0,0,0,0,0,0,0,2.6909,2.6923,2.6916,2.6883,2.688,2.6887,2.6887,2.6886,2.683,2.6828,2.6827,2.6825,2.6797,2.6798,2.6798,2.6834,0,0,2.6799,2.68,0,0,0,0,0,0,0,0,2.691,2.6909,2.6889,2.6886,2.6882,2.686,2.6878,2.6869,2.683,2.6849,2.6826,2.6824,2.682,2.6818,2.6817,2.6833,2.6832,2.6799,2.68,2.68,2.68,0,0,0,0,0,0,0,2.6911,2.691,2.6904,2.6888,2.6884,2.6871,2.6867,2.6876,2.6844,2.6847,2.6843,2.6841,2.6818,2.6816,2.6815,2.6831,2.6799,2.68,2.68,2.68,2.6878,2.688,0,0,0,0,0,0,2.6917,2.6911,2.6905,2.6904,2.6892,2.6872,2.6868,2.6869,2.6844,2.6839,2.6842,2.6838,2.6816,2.6815,2.6814,2.6856,2.68,2.68,2.68,2.6876,2.6878,2.688,0,0,0,0,0,0,2.6917,2.6917,2.6906,2.6906,2.6904,2.6874,2.6875,2.6869,2.6868,2.684,2.6834,2.6847,2.6815,2.6814,2.683,2.6854,2.68,2.6801,2.6874,2.6877,2.6879,2.694,0,0,0,0,0,0,2.6917,2.6917,2.693,2.6907,2.6904,2.6923,2.6877,2.687,2.6869,2.6863,2.6843,2.6838,2.6814,2.683,2.6831,2.6854,2.6801,2.6872,2.6875,2.6878,2.6936,2.6945,2.6952,0,0,0,0,0,2.6918,2.6949,2.6931,2.6931,2.692,2.6924,2.6923,2.6894,2.6871,2.6884,2.6866,2.6838,2.6851,2.6832,2.6832,2.6856,2.687,2.6874,2.6878,2.6932,2.6943,2.6952,0,0,0,0,0,0,2.6976,2.6945,2.6925,2.6949,2.694,2.6915,2.6931,2.6906,2.6903,2.6899,2.6863,2.6859,2.6881,2.687,2.6849,2.6891,2.6856,2.6861,2.6897,2.6907,2.6915,2.6918,2.6801,0,0,0,0,0,2.6991,2.6997,2.697,2.6993,2.699,2.6961,2.6962,2.6941,2.693,2.6926,2.6909,2.6899,2.6901,2.6904,2.6904,2.6934,2.6929,2.6951,2.6959,2.6965,2.697,2.6986,2.6996,2.6894,2.6894,2.6893,0,0,2.7023,2.7007,2.7013,2.7005,2.6995,2.7002,2.6958,2.6967,2.6973,2.6927,2.6942,2.6929,2.6916,2.694,2.695,2.6932,2.6997,2.6971,2.6976,2.6977,2.6992,2.7001,2.701,2.6896,2.6896,2.6895,0,0,2.7086,2.7074,2.7093,2.7084,2.707,2.7051,2.7055,2.7034,2.7024,2.7038,2.7005,2.701,2.7014,2.7007,2.7004,2.7065,2.7039,2.7065,2.7108,2.7125,2.7133,2.714,2.7163,2.7171,2.707,2.707,2.707,0,2.7128,2.7137,2.7106,2.7118,2.7116,2.7074,2.7094,2.7087,2.7074,2.7073,2.7053,2.7058,2.7046,2.7069,2.7084,2.7082,2.7087,2.7068,2.7134,2.7141,2.7147,2.7169,2.7177,2.7073,2.7073,2.7073,2.7072,0,2.719,2.7197,2.7214,2.7203,2.7202,2.7218,2.719,2.7193,2.7172,2.7156,2.7172,2.7156,2.7153,2.7157,2.7136,2.7176,2.7166,2.714,2.7105,2.7161,2.7181,2.7188,2.7078,2.7077,2.7076,2.7075,0,0,2.7288,2.726,2.7267,2.7262,2.7243,2.7248,2.7262,2.726,2.7264,2.7256,2.7268,2.7273,2.7249,2.7246,2.7224,2.7238,2.7289,2.7211,2.7211,2.7228,2.7334,2.7354,2.7364,2.7272,2.7273,2.7274,2.7336,0,2.7348,2.737,2.7343,2.7372,2.7378,2.734,2.7352,2.7343,2.7328,2.7331,2.7314,2.7319,2.7287,2.7285,2.7297,2.7281,2.731,2.7276,2.7283,2.7284,2.7289,2.7374,2.7395,2.7454,2.7343,2.7344,2.7345,0,2.742,2.7416,2.7446,2.7427,2.7428,2.744,2.7436,2.744,2.7429,2.7417,2.7413,2.7387,2.7401,2.7366,2.7384,2.7361,2.7363,2.7355,2.7356,2.7357,2.7319,2.7379,2.7472,2.7482,2.7357,2.7356,2.7355,0,2.7491,2.7493,2.7511,2.7508,2.7485,2.7495,2.7486,2.7473,2.7473,2.7469,2.747,2.7467,2.7467,2.7466,2.7441,2.7417,2.7463,2.7425,2.7454,2.7455,2.7466,2.7466,2.7563,2.7465,2.7465,2.7465,2.7465,0,2.7561,2.7581,2.7543,2.7554,2.7576,2.7544,2.7566,2.7553,2.7542,2.7551,2.7517,2.7526,2.7491,2.7497,2.7477,2.7496,2.7496,2.7487,2.7482,2.7491,2.7492,2.7492,2.7488,2.7467,2.7467,2.7466,2.7466,0,2.7643,2.7619,2.7636,2.7614,2.7609,2.7626,2.7607,2.7617,2.7599,2.7611,2.7612,2.7585,2.759,2.7564,2.7564,2.7551,2.7581,2.7568,2.7585,2.7581,2.7612,2.761,2.7713,2.7726,2.7619,2.762,2.7621,0,2.769,2.7705,2.7684,2.7688,2.7681,2.7686,2.7687,2.7656,2.7658,2.7647,2.7659,2.7661,2.7661,2.7671,2.7651,2.7652,2.7639,2.7675,2.7639,2.7648,2.7642,2.7642,2.7644,2.7683,2.7685,2.7686,2.7687,0,2.7777,2.7764,2.7765,2.7764,2.7765,2.7762,2.7757,2.7761,2.7728,2.7732,2.7737,2.7737,2.7738,2.7741,2.7737,2.7729,2.7703,2.7698,2.7705,2.7715,2.7725,2.7722,2.7607,2.7696,2.7695,2.7694,2.7694,2.7694,2.7844,2.7855,2.7843,2.7846,2.7839,2.7835,2.7844,2.7828,2.7831,2.7829,2.7811,2.782,2.7809,2.7801,2.7795,2.7802,2.7785,2.7795,2.7797,2.7801,2.7807,2.7723,2.7801,2.7801,2.78,2.78,2.78,0,2.7929,2.7919,2.7923,2.7917,2.792,2.7895,2.7888,2.7892,2.79,2.7892,2.7893,2.7899,2.7902,2.7883,2.7884,2.7893,2.7881,2.7894,2.7894,2.7893,2.7821,2.7816,2.7904,2.7904,2.7904,2.7904,2.7904,2.7904,2.7974,2.7993,2.7979,2.7994,2.7984,2.7992,2.7991,2.7987,2.7981,2.7989,2.7992,2.7979,2.7967,2.7967,2.7969,2.7963,2.7966,2.7983,2.7974,2.7908,2.7898,2.7888,2.7883,2.7984,2.7984,2.8045,2.8046,2.8046]}]]